GW4746 Weather Reports


Display with metric or nautical units.
time (UTC)temp
F
wind
direction
speed
MPH
gust
MPH
rain 1hr
in
rain 24hr
in
rain mn
in
humidity
%
barometer
mb
20260831063033 84 203 2.0 5.0 0.00 0.00 0.00 50 1015.5
20260831061534 85 139 2.0 5.0 0.00 0.00 0.00 49 1015.6
20260831060043 85 178 2.0 8.0 0.00 0.00 0.00 48 1015.7
20260831054533 85 150 2.0 6.0 0.00 0.00 0.00 48 1015.7
20260831053027 86 146 2.0 4.0 0.00 0.00 0.00 47 1015.7
20260831051531 86 148 2.0 4.0 0.00 0.00 0.00 46 1015.5
20260831050034 86 172 2.0 11.0 0.00 0.00 0.00 45 1015.5
20260831044535 87 157 3.0 6.0 0.00 0.00 0.00 44 1015.7
20260831043034 87 137 1.0 6.0 0.00 0.00 0.00 43 1015.6
20260831041529 88 89 2.0 5.0 0.00 0.00 0.00 41 1015.7
20260831040032 87 178 2.0 5.0 0.00 0.00 0.00 39 1015.5
20260831034515 87 150 1.0 5.0 0.00 0.00 0.00 40 1015.4
20260831033036 88 148 2.0 4.0 0.00 0.00 0.00 40 1015.3
20260831031533 88 92 1.0 5.0 0.00 0.00 0.00 40 1015.1
20260831030008 88 169 1.0 4.0 0.00 0.00 0.00 40 1015.0
20260831024520 89 86 1.0 4.0 0.00 0.00 0.00 37 1014.7
20260831023017 90 82 2.0 6.0 0.00 0.00 0.00 36 1014.4
20260831021535 90 107 1.0 5.0 0.00 0.00 0.00 36 1014.2
20260831020039 91 108 2.0 5.0 0.00 0.00 0.00 34 1013.9
20260831014536 92 85 2.0 5.0 0.00 0.00 0.00 33 1013.9
20260831013026 92 153 1.0 6.0 0.00 0.00 0.00 34 1013.6
20260831011520 93 113 1.0 3.0 0.00 0.00 0.00 33 1013.4
20260831010029 94 109 1.0 6.0 0.00 0.00 0.00 32 1013.3
20260831004527 95 108 2.0 8.0 0.00 0.00 0.00 31 1013.1
20260831003019 96 91 3.0 9.0 0.00 0.00 0.00 30 1013.1
20260831001524 96 119 2.0 8.0 0.00 0.00 0.00 29 1013.0
20260831000019 98 92 1.0 7.0 0.00 0.00 0.00 29 1013.3
20260830234540 98 176 1.0 5.0 0.00 0.00 0.00 28 1013.3
20260830233031 99 102 1.0 5.0 0.00 0.00 0.00 28 1013.3
20260830231535 99 77 1.0 11.0 0.00 0.00 0.00 28 1013.3
20260830230031 99 123 3.0 8.0 0.00 0.00 0.00 27 1013.4
20260830224538 101 137 4.0 10.0 0.00 0.00 0.00 27 1013.3
20260830223027 101 208 1.0 6.0 0.00 0.00 0.00 27 1013.3
20260830221531 101 235 1.0 5.0 0.00 0.00 0.00 28 1013.4
20260830220037 101 15 1.0 4.0 0.00 0.00 0.00 27 1013.4
20260830214519 100 137 1.0 9.0 0.00 0.00 0.00 29 1013.6
20260830213023 102 164 1.0 4.0 0.00 0.00 0.00 26 1013.8
20260830211537 101 264 3.0 8.0 0.00 0.00 0.00 27 1013.9
20260830210044 101 84 2.0 8.0 0.00 0.00 0.00 27 1014.2
20260830204535 102 157 1.0 7.0 0.00 0.00 0.00 30 1014.5
20260830203023 100 167 2.0 8.0 0.00 0.00 0.00 31 1014.8
20260830201524 100 148 1.0 9.0 0.00 0.00 0.00 31 1015.0
20260830200031 100 178 1.0 7.0 0.00 0.00 0.00 33 1015.3
20260830194533 99 196 1.0 8.0 0.00 0.00 0.00 33 1015.4
20260830193030 99 224 3.0 6.0 0.00 0.00 0.00 33 1015.7
20260830191537 97 160 0.0 5.0 0.00 0.00 0.00 34 1015.8
20260830190032 99 171 2.0 5.0 0.00 0.00 0.00 34 1016.1
20260830184527 100 102 2.0 4.0 0.00 0.00 0.00 35 1016.1
20260830183034 98 161 1.0 4.0 0.00 0.00 0.00 36 1016.3
20260830181530 98 188 2.0 5.0 0.00 0.00 0.00 36 1016.7
20260830180032 97 244 1.0 6.0 0.00 0.00 0.00 39 1017.1
20260830174541 97 151 2.0 4.0 0.00 0.00 0.00 39 1017.3
20260830173045 96 145 2.0 8.0 0.00 0.00 0.00 41 1017.5
20260830171539 96 240 1.0 5.0 0.00 0.00 0.00 41 1017.7
20260830170033 95 153 1.0 5.0 0.00 0.00 0.00 42 1017.9
20260830164544 94 247 2.0 5.0 0.00 0.00 0.00 43 1017.9
20260830163039 93 229 1.0 6.0 0.00 0.00 0.00 45 1018.2
20260830161527 93 160 2.0 5.0 0.00 0.00 0.00 47 1018.0
20260830160011 91 162 2.0 8.0 0.00 0.00 0.00 48 1018.3
20260830154516 90 266 1.0 8.0 0.00 0.00 0.00 50 1018.2
20260830153040 89 226 2.0 6.0 0.00 0.00 0.00 52 1018.3
20260830151527 88 176 1.0 4.0 0.00 0.00 0.00 56 1018.3
20260830150031 87 175 2.0 5.0 0.00 0.00 0.00 57 1018.3
20260830144529 86 265 1.0 6.0 0.00 0.00 0.00 58 1018.3
20260830143018 84 197 2.0 7.0 0.00 0.00 0.00 60 1018.2
20260830141523 84 181 1.0 6.0 0.00 0.00 0.00 61 1018.3
20260830140030 83 164 1.0 5.0 0.00 0.00 0.00 62 1018.4
20260830134529 82 139 2.0 4.0 0.00 0.00 0.00 62 1018.4
20260830133016 80 188 1.0 6.0 0.00 0.00 0.00 65 1018.0
20260830131539 79 215 2.0 7.0 0.00 0.00 0.00 66 1017.9
20260830130028 78 192 0.0 5.0 0.00 0.00 0.00 67 1017.7
20260830124504 78 157 0.0 3.0 0.00 0.00 0.00 67 1017.4
20260830123008 78 174 0.0 4.0 0.00 0.00 0.00 67 1017.2
20260830121514 78 158 0.0 4.0 0.00 0.00 0.00 66 1017.1
20260830120028 78 155 0.0 3.0 0.00 0.00 0.00 65 1017.0
20260830114532 78 168 0.0 3.0 0.00 0.00 0.00 64 1016.6
20260830113031 79 176 1.0 5.0 0.00 0.00 0.00 63 1016.5
20260830111530 79 165 2.0 6.0 0.00 0.00 0.00 62 1016.4
20260830110035 79 171 2.0 7.0 0.00 0.00 0.00 62 1016.4
20260830104524 79 166 1.0 4.0 0.00 0.00 0.00 62 1016.2
20260830103029 79 163 1.0 3.0 0.00 0.00 0.00 61 1016.2
20260830101530 79 91 0.0 3.0 0.00 0.00 0.00 60 1016.2
20260830100032 80 155 1.0 4.0 0.00 0.00 0.00 59 1016.3
20260830094516 80 172 1.0 4.0 0.00 0.00 0.00 58 1016.3
20260830093024 80 172 0.0 3.0 0.00 0.00 0.00 57 1016.1
20260830091542 80 229 2.0 4.0 0.00 0.00 0.00 57 1016.3
20260830090034 81 189 1.0 4.0 0.00 0.00 0.00 56 1016.0
20260830084534 81 154 0.0 3.0 0.00 0.00 0.00 55 1016.1
20260830083041 81 172 1.0 3.0 0.00 0.00 0.00 55 1016.2
20260830081534 82 164 1.0 4.0 0.00 0.00 0.00 54 1016.2
20260830080035 82 155 2.0 5.0 0.00 0.00 0.00 54 1016.3
20260830074536 82 162 2.0 5.0 0.00 0.00 0.00 53 1016.2
20260830073034 83 219 2.0 3.0 0.00 0.00 0.00 53 1016.3
20260830071525 83 155 1.0 3.0 0.00 0.00 0.00 52 1016.5
20260830070026 84 161 0.0 4.0 0.00 0.00 0.00 51 1016.5
20260830064506 84 211 1.0 6.0 0.00 0.00 0.00 51 1016.4